Tehachapi, CA

5:43 PM PST on December 11, 2017 (GMT -0800)
Tehachapi Municipal

Weather History for KTSP - October, 2011

Change the Weather History Date:

Monday, October 10, 2011

  Actual Average Record
Temperature  
Mean Temperature 50 °F -  
Max Temperature 64 °F 74 °F 84 °F (2015)
Min Temperature 37 °F 43 °F 33 °F (2012)
Degree Days  
Heating Degree Days 14    
Moisture  
Dew Point 39 °F    
Average Humidity 74    
Maximum Humidity 93    
Minimum Humidity 42    
Precipitation  
Precipitation 0.00 in - - ()
Sea Level Pressure  
Sea Level Pressure 30.06 in    
Wind  
Wind Speed 4 mph (NW)    
Max Wind Speed 18 mph    
Max Gust Speed 26 mph    
Visibility 6 miles    
Events      
Averages and records for this station are not official NWS values.
T = Trace of Precipitation, MM = Missing Value Source: NWS Daily Summary

Daily Weather History Graph

Daily Weather History Graph

Search for Another Location

Airport or City:

Trip Planner

Search our weather history database for the weather conditions in past years. The results will help you decide how hot, cold, wet, or windy it might be!

Date:

Astronomy

Oct. 10, 2011 Rise Set
Actual Time 6:55 AM PDT 6:25 PM PDT
Civil Twilight 6:30 AM PDT 6:50 PM PDT
Nautical Twilight 6:00 AM PDT 7:20 PM PDT
Astronomical Twilight 5:31 AM PDT 7:49 PM PDT
Moon 5:31 PM PDT (10/10) 5:42 AM PDT (10/10)
Length of Visible Light 12h 20m
Length of Day
11h 29m
Waxing Gibbous, 98% of the Moon is Illuminated
Oct 10
Waxing Gibbous
Oct 11
Full
Oct 19
Last Quarter
Oct 26
New
Nov 2
First Quarter

Hourly Weather History & Observations

Time (PDT) Temp. Windchill Dew Point Humidity Pressure Visibility Wind Dir Wind Speed Gust Speed Precip Events Conditions
12:15 AM 44.6 °F - 41.0 °F 87% 30.07 in 5.0 mi Calm Calm - N/A   Clear
12:35 AM 46.4 °F - 41.0 °F 81% 30.06 in 5.0 mi Calm Calm - N/A   Clear
12:55 AM 44.6 °F 43.1 °F 41.0 °F 87% 30.06 in 5.0 mi ENE 3.5 mph - N/A   Clear
1:15 AM 44.6 °F - 41.0 °F 87% 30.06 in 5.0 mi Calm Calm - N/A   Clear
1:35 AM 41.0 °F - 37.4 °F 87% 30.06 in 5.0 mi Calm Calm - N/A   Clear
2:15 AM 41.0 °F 38.0 °F 37.4 °F 87% 30.07 in 6.0 mi SE 4.6 mph - N/A   Clear
2:35 AM 39.2 °F - 35.6 °F 87% 30.06 in 5.0 mi Calm Calm - N/A   Clear
2:55 AM 41.0 °F - 37.4 °F 87% 30.05 in 6.0 mi Calm Calm - N/A   Clear
3:35 AM 39.2 °F - 37.4 °F 93% 30.04 in 6.0 mi Calm Calm - N/A   Clear
3:55 AM 39.2 °F - 37.4 °F 93% 30.04 in 5.0 mi Calm Calm - N/A   Clear
4:15 AM 37.4 °F - 35.6 °F 93% 30.04 in 5.0 mi Calm Calm - N/A   Clear
4:35 AM 37.4 °F - 35.6 °F 93% 30.04 in 7.0 mi Calm Calm - N/A   Clear
4:55 AM 37.4 °F 34.9 °F 35.6 °F 93% 30.04 in 7.0 mi SE 3.5 mph - N/A   Clear
5:15 AM 37.4 °F - 35.6 °F 93% 30.04 in 7.0 mi Calm Calm - N/A   Clear
5:35 AM 37.4 °F - 35.6 °F 93% 30.04 in 7.0 mi Calm Calm - N/A   Clear
5:55 AM 37.4 °F 33.8 °F 35.6 °F 93% 30.04 in 7.0 mi ESE 4.6 mph - N/A   Clear
6:15 AM 39.2 °F - 35.6 °F 87% 30.05 in 7.0 mi Calm Calm - N/A   Clear
6:35 AM 37.4 °F - 35.6 °F 93% 30.06 in 6.0 mi Calm Calm - N/A   Clear
6:55 AM 37.4 °F - 35.6 °F 93% 30.06 in 5.0 mi Calm Calm - N/A   Clear
7:15 AM 39.2 °F - 35.6 °F 87% 30.07 in 5.0 mi Calm Calm - N/A   Clear
7:35 AM 39.2 °F - 37.4 °F 93% 30.06 in 4.0 mi Calm Calm - N/A   Clear
7:55 AM 42.8 °F - 41.0 °F 93% 30.06 in 3.0 mi Calm Calm - N/A   Clear
8:15 AM 50.0 °F - 44.6 °F 82% 30.06 in 4.0 mi NNW 5.8 mph - N/A   Haze
8:35 AM 53.6 °F - 46.4 °F 77% 30.06 in 4.0 mi NW 4.6 mph - N/A   Haze
8:55 AM 57.2 °F - 44.6 °F 63% 30.06 in 5.0 mi NW 3.5 mph - N/A   Haze
9:15 AM 59.0 °F - 42.8 °F 55% 30.05 in 5.0 mi NW 5.8 mph - N/A   Haze
9:35 AM 59.0 °F - 39.2 °F 48% 30.06 in 7.0 mi WNW 8.1 mph - N/A   Clear
9:55 AM 62.6 °F - 39.2 °F 42% 30.06 in 9.0 mi NW 12.7 mph - N/A   Clear
10:15 AM 62.6 °F - 41.0 °F 45% 30.07 in 8.0 mi NW 12.7 mph 18.4 mph N/A   Clear
10:35 AM 62.6 °F - 41.0 °F 45% 30.07 in 8.0 mi NW 16.1 mph - N/A   Clear
10:55 AM 60.8 °F - 41.0 °F 48% 30.07 in 7.0 mi NW 17.3 mph 24.2 mph N/A   Clear
11:15 AM 62.6 °F - 42.8 °F 48% 30.07 in 7.0 mi NW 16.1 mph - N/A   Clear
11:35 AM 62.6 °F - 42.8 °F 48% 30.08 in 7.0 mi NW 18.4 mph 26.5 mph N/A   Clear
12:15 PM 64.4 °F - 42.8 °F 45% 30.08 in 5.0 mi NW 17.3 mph 23.0 mph N/A   Haze
12:35 PM 64.4 °F - 42.8 °F 45% 30.07 in 7.0 mi NW 17.3 mph 23.0 mph N/A   Clear
12:55 PM 62.6 °F - 42.8 °F 48% 30.06 in 8.0 mi NW 16.1 mph 21.9 mph N/A   Clear
1:15 PM 64.4 °F - 42.8 °F 45% 30.05 in 8.0 mi NW 16.1 mph 25.3 mph N/A   Clear
1:35 PM 64.4 °F - 41.0 °F 42% 30.04 in 8.0 mi NW 16.1 mph 20.7 mph N/A   Clear
1:55 PM - - - N/A% - - North - - N/A   Unknown
2:15 PM - - - N/A% - - North - - N/A   Unknown
2:35 PM - - - N/A% - - North - - N/A   Unknown
2:55 PM - - - N/A% - - North - - N/A   Unknown
3:15 PM - - - N/A% - - North - - N/A   Unknown
3:35 PM - - - N/A% - - North - - N/A   Unknown
3:55 PM - - - N/A% - - North - - N/A   Unknown
4:15 PM - - - N/A% - - North - - N/A   Unknown
4:35 PM - - - N/A% - - North - - N/A   Unknown
4:55 PM - - - N/A% - - North - - N/A   Unknown
5:15 PM - - - N/A% - - North - - N/A   Unknown
5:35 PM - - - N/A% - - North - - N/A   Unknown
5:55 PM - - - N/A% - - North - - N/A   Unknown
6:15 PM - - - N/A% - - North - - N/A   Unknown
6:35 PM - - - N/A% - - North - - N/A   Unknown
6:55 PM - - - N/A% - - North - - N/A   Unknown
7:15 PM - - - N/A% - - North - - N/A   Unknown
7:35 PM - - - N/A% - - North - - N/A   Unknown
7:55 PM - - - N/A% - - North - - N/A   Unknown
8:15 PM - - - N/A% - - North - - N/A   Unknown
8:35 PM - - - N/A% - - North - - N/A   Unknown
8:55 PM - - - N/A% - - North - - N/A   Unknown
9:15 PM - - - N/A% - - North - - N/A   Unknown
9:35 PM - - - N/A% - - North - - N/A   Unknown
9:55 PM - - - N/A% - - North - - N/A   Unknown
10:15 PM - - - N/A% - - North - - N/A   Unknown
10:35 PM - - - N/A% - - North - - N/A   Unknown
10:55 PM - - - N/A% - - North - - N/A   Unknown
11:15 PM - - - N/A% - - North - - N/A   Unknown
11:35 PM - - - N/A% - - North - - N/A   Unknown
11:55 PM - - - N/A% - - North - - N/A   Unknown